Location: Atherton
(17.2661°S, 145.4859°E)
Time: 23:26:00
(UTC+10:00)

Vanguard 1 - Pass Details

Date: 30 June 2025
Orbit: 649 x 3822 km, 34.2° (Epoch: 17 July)

Event Time Altitude Azimuth Distance (km) Brightness Sun altitude
Rises 12:54:29 0° 339° (NNW) 7,052 15.1 48.8°
Reaches altitude 10° 13:00:31 10° 352° (N) 6,421 15.2 48.5°
Maximum altitude 13:17:06 26° 41° (NE) 5,632 14.6 47.4°
Drops below altitude 10° 13:33:36 10° 88° (E) 6,536 14.2 45.9°
Sets 13:39:33 0° 100° (E) 7,214 14.2 45.3°
